Presure
171 208 221 227 231 239 252 236 281 280 273 292 281 263 263 275 269 269 267 275 301 392 357 331 334 391 246 269 137 205 206 230 199 241 195 194 184 137 155 177 179 168 171 169
148 223 221 219 224 229 242 245 235 286 291 287 251 284 264 263 256 256 257 259 292 308 310 339 329 462 291 265 283 250 213 222 141 190 217 192 183 186 146 156 171 180 178 170
179 161 174 226 222 225 230 237 230 233 308 298 262 263 264 258 241 249 249 248 259 274 272 272 326 376 276 270 274 257 186 197 199 175 203 177 191 190 185 177 162 171 172 175
191 220 148 220 205 223 220 159 238 227 247 313 262 275 250 250 241 252 252 247 245 245 264 280 326 279 276 260 261 245 194 203 195 150 161 210 184 188 190 186 178 181 165 167
195 214 206 216 215 217 221 223 229 234 228 274 281 255 247 231 262 259 236 254 245 255 269 344 258 292 269 257 261 236 196 177 193 191 178 188 168 213 189 183 183 185 184 173
182 203 199 201 214 215 220 222 140 227 236 229 261 252 248 247 236 239 233 222 258 266 281 357 232 268 267 255 250 214 182 208 197 166 161 173 113 159 193 203 186 191 186 158
167 180 229 170 208 214 212 208 220 219 224 238 225 230 254 255 259 245 241 247 229 282 286 227 239 238 246 246 255 238 191 195 192 187 178 174 200 175 136 150 167 191 192 187
204 166 215 165 212 208 172 209 215 221 223 226 228 226 237 253 251 271 264 247 235 232 316 223 227 229 226 221 249 234 234 183 205 177 197 198 164 211 183 186 153 180 192 186
195 186 201 221 217 224 208 211 210 195 215 222 225 223 224 225 258 254 251 304 272 245 243 218 224 229 201 221 240 228 207 189 209 190 209 200 191 165 213 226 217 202 155 194
196 198 201 198 221 213 224 211 211 214 214 214 221 219 217 225 231 251 255 257 259 270 216 206 221 240 231 219 208 208 214 203 189 188 183 199 186 190 178 168 184 213 206 157
197 203 200 202 216 215 220 212 209 209 212 213 218 219 215 218 225 218 231 253 253 258 232 255 207 175 240 227 214 203 195 180 183 184 187 189 181 185 184 200 180 179 199 154
217 214 205 195 207 229 220 221 203 210 210 214 211 218 217 225 228 228 212 229 252 251 191 232 176 157 209 212 221 192 223 199 194 158 180 191 196 203 191 187 185 185 196 189
213 225 216 207 212 229 234 222 215 210 210 210 214 211 211 218 225 225 229 221 229 242 256 250 261 169 172 222 198 201 206 190 198 212 187 190 192 189 192 180 197 196 197 184
201 216 230 214 237 226 240 226 221 213 212 214 213 216 217 210 219 225 214 235 220 221 227 258 273 256 257 181 211 200 210 202 199 193 184 165 208 191 193 191 191 187 191 179
193 204 242 229 225 226 217 224 224 213 218 217 214 206 213 208 219 222 221 212 240 228 244 215 258 266 183 224 217 219 201 203 194 201 199 199 196 184 185 182 189 190 192 189
184 213 240 215 245 243 219 213 216 234 225 220 220 207 218 210 217 220 223 225 219 241 224 234 236 274 278 243 255 202 216 235 225 221 218 203 185 199 194 187 185 185 188 169
203 217 217 234 239 240 232 225 217 218 232 228 225 220 226 217 220 219 218 236 235 229 235 231 235 254 238 262 268 236 241 227 205 211 221 212 212 192 200 206 184 182 206 190
188 224 220 248 242 233 232 226 216 230 228 232 232 230 219 221 225 225 219 232 221 224 225 244 249 249 257 252 221 258 253 228 225 230 212 211 212 212 212 213 210 190 186 194
194 230 243 255 246 239 229 229 230 220 232 228 223 224 221 226 231 227 221 224 233 219 225 232 235 245 244 246 250 252 205 260 273 244 229 230 217 206 213 223 223 222 219 218
197 228 255 260 255 239 232 231 239 226 220 221 225 224 229 230 226 227 225 226 214 220 230 235 242 246 243 242 239 244 249 253 265 265 266 284 258 231 236 233 221 208 207 223
267 244 258 260 253 242 238 240 231 235 229 228 240 223 232 233 231 229 225 231 238 231 242 243 239 238 239 234 247 252 262 266 265 265 267 274 284 248 292 317 325 237 238 231
266 254 267 261 247 239 239 238 244 235 227 232 235 238 239 230 233 239 234 237 236 234 236 240 233 243 244 258 268 269 274 271 276 279 292 298 303 305 312 262 330 303 332 351
284 269 261 253 239 235 247 247 244 228 239 230 236 232 230 232 232 237 238 238 244 245 238 239 244 250 268 259 255 269 304 301 303 311 319 322 322 327 331 328 331 335 333 342
267 255 250 241 241 249 244 239 236 238 232 236 239 234 237 233 234 240 242 242 236 238 247 255 256 257 259 262 284 311 319 321 328 344 377 516 502 499 491 485 485 480 358 365
248 254 248 239 240 237 242 236 237 232 235 240 237 236 235 245 241 244 242 239 240 248 247 251 259 258 281 302 331 316 326 510 500 485 479 476 474 472 464 459 458 457 450 444
241 246 239 234 233 231 242 234 245 233 236 240 240 250 244 238 241 245 246 246 242 250 259 264 278 307 334 339 449 499 482 473 463 454 451 447 446 442 438 433 427 419 418 417
Wind_Speed
51 47 58 66 66 69 68 63 56 52 58 12 12 35 26 35 37 41 35 42 38 13 9 27 36 37 74 75 32 73 72 85 87 69 92 93 91 71 73 81 84 78 80 77
33 59 59 61 65 70 73 68 65 56 53 8 39 14 20 28 32 31 34 31 39 34 32 8 37 23 78 75 73 78 70 80 66 90 80 93 91 92 73 76 79 84 84 81
39 35 46 65 65 67 72 70 65 64 47 7 18 27 16 27 20 26 21 22 32 26 25 9 34 53 72 70 73 69 74 66 80 80 82 88 93 96 96 92 82 83 83 85
55 62 22 64 58 69 65 34 70 64 61 15 21 13 38 29 22 18 15 10 10 4 14 14 30 56 67 69 70 71 78 78 67 74 75 74 94 97 98 98 93 95 83 85
55 64 61 65 63 65 66 67 70 67 64 53 21 30 28 39 11 18 29 9 7 5 9 10 61 60 70 77 74 80 84 83 92 92 86 83 73 79 99 95 98 100 99 92
64 64 61 57 66 64 67 66 28 67 67 58 44 47 29 29 30 34 22 18 15 9 5 18 51 57 62 72 76 90 79 88 87 78 73 83 61 71 92 87 92 99 98 84
47 62 69 45 62 64 61 63 65 62 62 63 54 52 39 30 19 24 29 19 18 12 2 55 57 59 57 61 65 89 88 90 97 93 91 80 82 87 74 70 78 99 99 104
76 60 73 55 64 61 50 59 61 61 59 57 50 51 51 42 35 20 18 20 6 10 10 56 52 66 69 70 64 81 81 91 91 83 96 79 76 87 76 104 76 97 106 108
73 68 76 68 65 61 59 59 57 51 52 56 51 44 43 45 37 39 33 15 21 21 1 31 59 65 67 72 71 80 92 90 87 95 91 96 97 80 84 86 92 94 75 111
74 77 75 72 61 63 56 58 58 62 57 50 49 43 38 41 43 39 38 35 27 6 17 27 57 65 74 77 82 84 88 91 96 99 96 90 103 89 93 85 97 91 102 81
77 79 73 71 67 62 58 56 57 57 54 52 48 43 36 34 37 35 37 35 32 29 22 24 42 52 74 80 88 92 98 88 93 95 97 99 100 97 92 87 97 88 101 84
84 83 77 68 74 61 58 49 52 56 57 58 51 44 40 44 37 32 28 31 26 27 29 29 40 47 80 85 87 90 96 105 108 74 92 101 106 97 106 106 105 102 98 90
85 85 82 78 77 67 51 51 49 56 54 55 57 49 37 40 40 33 30 26 28 24 22 27 35 46 55 87 85 95 102 95 102 104 97 105 111 112 110 105 103 105 105 103
89 86 82 77 62 64 51 50 50 54 56 57 55 56 56 36 41 39 30 32 22 27 27 22 27 39 45 59 88 87 99 101 105 102 96 85 115 113 117 115 116 115 117 106
90 87 80 73 68 60 62 59 56 58 60 57 55 51 56 45 50 46 41 35 37 29 32 39 21 24 62 66 91 100 107 109 103 111 115 120 121 111 112 111 119 120 123 121
86 82 85 79 62 55 58 62 61 58 59 58 57 53 55 53 56 53 52 50 42 45 37 34 41 40 37 63 74 87 101 108 110 114 119 127 114 127 128 120 118 119 123 100
92 84 82 77 66 60 56 60 62 62 60 61 60 61 58 57 59 58 57 62 56 53 52 47 45 49 51 47 61 81 92 104 108 111 120 123 127 118 132 139 112 112 140 129
83 88 83 72 66 62 59 60 65 66 64 62 62 62 63 64 65 65 63 64 60 60 60 64 63 60 58 57 68 62 85 96 103 114 122 124 128 132 135 138 140 129 125 134
92 91 90 69 65 66 62 64 65 66 64 65 65 67 67 68 67 68 68 69 69 68 69 69 69 71 70 70 68 69 88 74 82 110 120 127 129 131 137 144 144 147 148 151
95 93 86 70 62 65 66 69 68 68 68 71 71 72 74 73 72 70 72 75 73 75 77 78 80 79 78 78 79 82 84 86 90 91 93 100 122 136 144 145 146 145 145 152
86 94 80 69 66 65 68 68 69 69 70 73 71 73 74 75 76 76 76 79 82 80 83 82 84 85 86 85 93 95 98 97 98 99 101 103 106 120 107 113 114 155 159 158
83 84 69 65 68 69 71 71 70 70 74 75 75 76 76 77 80 82 83 85 86 86 88 90 89 96 97 103 106 107 106 105 107 109 110 112 114 116 117 130 118 126 121 121
64 61 59 60 70 75 71 70 71 77 78 80 80 81 82 84 85 88 90 91 94 95 95 97 102 106 111 107 106 112 113 112 113 116 117 118 117 117 118 117 117 119 123 122
58 63 61 70 73 70 72 77 80 82 82 85 84 85 88 88 90 92 95 96 97 101 106 110 111 112 113 115 119 118 115 114 115 116 106 54 59 56 57 60 59 61 109 112
71 66 64 73 73 79 78 83 84 85 87 87 88 89 91 95 95 98 100 103 105 108 109 112 115 116 121 123 121 116 106 52 50 54 53 52 51 49 49 50 49 48 48 53
79 72 73 80 85 85 83 87 87 87 90 92 93 96 95 97 101 104 106 107 109 113 115 117 122 125 121 117 68 48 52 49 49 49 48 47 45 44 45 45 44 48 51 53
Wind_Direction
359 4 16 19 16 14 14 11 11 7 3 77 70 347 30 51 51 42 35 34 24 85 171 190 181 183 202 201 235 209 212 209 220 224 229 229 232 240 236 235 238 238 240 240
327 12 14 16 16 14 13 13 8 14 8 14 11 65 46 51 49 37 34 41 37 67 70 145 172 212 197 198 194 202 208 209 240 225 227 231 233 233 239 240 238 241 243 243
357 334 350 12 15 14 13 13 10 9 13 33 2 20 10 60 9 45 42 56 48 53 117 139 188 175 192 191 195 192 210 210 215 229 229 231 233 235 236 238 240 240 242 244
5 7 327 10 9 11 12 340 13 10 14 32 16 59 14 18 30 66 33 42 65 75 327 259 195 185 193 192 189 186 207 204 208 243 237 229 230 232 235 237 240 242 241 244
1 4 5 5 9 8 9 9 10 13 14 29 35 16 18 4 40 65 1 346 180 265 300 243 178 178 186 188 189 187 207 222 213 218 229 226 236 235 234 235 237 242 244 243
348 1 0 3 4 5 4 7 321 10 12 13 29 30 23 355 359 352 338 5 353 302 352 184 184 176 180 191 192 199 220 209 215 242 246 235 252 238 235 239 243 242 245 248
346 352 355 353 360 1 2 358 5 6 9 11 12 12 22 18 342 333 322 299 355 344 199 181 184 185 182 187 197 196 215 215 221 228 238 240 235 239 248 247 248 241 243 245
354 338 356 350 355 356 354 359 1 3 6 7 11 8 12 9 10 342 295 269 299 356 14 192 192 194 196 203 198 198 202 225 217 239 226 232 249 232 239 241 253 240 241 242
352 346 353 349 350 350 354 354 356 354 2 3 5 7 5 359 2 360 4 276 285 271 246 216 200 199 210 200 196 195 209 225 213 228 223 229 236 249 235 234 238 240 253 243
348 347 349 348 343 346 345 348 349 348 352 355 359 1 360 1 358 1 355 350 352 300 254 227 210 205 205 207 206 207 204 212 227 231 238 232 240 244 247 252 248 238 243 252
343 343 343 345 345 340 338 343 344 345 346 347 349 353 353 355 356 348 348 350 339 336 286 259 231 230 206 209 209 213 218 236 236 238 238 240 249 247 250 243 252 246 245 255
336 337 338 340 342 337 335 333 340 337 337 339 339 344 346 348 350 347 332 334 354 321 266 279 250 252 218 215 218 225 216 223 230 250 245 238 237 234 244 250 253 254 250 252
339 337 334 335 337 337 325 331 329 331 331 331 332 332 334 336 341 343 338 327 319 331 319 291 286 251 240 220 225 228 224 237 231 225 243 242 242 246 246 253 246 249 250 258
331 335 334 331 331 332 323 323 322 323 325 324 325 325 324 323 326 331 315 324 299 292 294 320 290 266 259 244 225 239 223 230 236 242 246 256 235 246 245 248 250 254 253 257
328 327 333 330 326 326 327 323 322 321 316 316 318 320 318 316 320 321 317 302 316 287 303 272 281 281 251 239 227 228 234 236 243 240 240 240 243 253 254 255 253 254 253 256
325 327 334 327 323 315 320 322 321 311 309 310 312 313 312 311 315 314 316 311 297 312 281 278 256 296 263 238 239 234 233 236 239 240 239 240 248 243 247 254 257 258 256 263
321 323 327 327 321 321 314 310 315 314 307 309 308 309 309 308 311 310 308 310 309 304 303 289 281 290 262 260 252 240 240 239 240 242 241 242 243 248 246 245 255 256 250 255
322 322 323 321 318 319 313 309 311 309 309 307 306 308 308 308 307 307 305 308 302 302 300 303 299 294 290 278 261 261 245 244 242 241 243 246 246 246 246 246 247 253 255 254
320 320 324 316 312 313 311 308 304 308 309 306 309 307 306 306 305 305 304 304 303 299 299 298 296 295 291 288 283 278 258 267 271 247 245 245 246 248 249 248 248 248 249 249
317 317 320 313 307 309 308 308 306 307 309 309 306 305 304 304 303 302 301 302 298 298 298 297 298 296 293 291 286 286 282 278 279 275 268 275 251 251 249 249 250 251 252 251
314 317 316 310 308 309 307 305 306 304 304 304 300 303 302 300 300 300 299 298 297 297 299 298 297 295 292 288 290 289 288 286 283 280 277 276 275 261 266 273 271 250 250 251
311 314 309 308 308 309 307 306 303 302 304 304 305 304 302 301 300 298 298 299 298 299 299 298 295 296 294 296 296 295 292 289 287 284 283 280 278 275 274 258 268 261 267 267
310 309 307 304 307 308 306 302 301 305 303 306 305 304 302 301 302 302 302 301 302 302 300 299 298 298 299 297 295 295 295 290 287 285 282 279 277 275 273 270 269 267 265 265
308 307 306 304 303 302 301 303 303 304 306 305 303 302 301 302 302 303 303 304 303 302 301 302 301 300 299 298 298 297 294 290 288 285 282 288 285 283 281 280 279 278 266 265
308 306 302 303 304 304 301 302 302 305 304 303 302 302 303 303 305 306 305 304 303 302 302 302 301 300 301 301 299 296 294 294 293 290 288 286 285 282 280 279 278 277 275 274
305 303 301 302 303 305 299 303 300 303 303 303 304 305 306 307 307 306 305 304 302 302 303 303 304 304 302 300 298 295 294 294 293 292 291 288 286 283 280 276 273 274 272 271